Minerva Libra — SVAA7 — position and weather

sailwx.info

Track history (hours):
 
Tides and Currents Weather Stations Pressure Air Temp Water Temp Dewpoint Dewpoint Depression Visibility Wind Speed Wind Dir Waves Ship Positions

Minerva Libra

Last reported at 2014-Aug-22 04:12 UTC. Time now 2014-Aug-22 17:43 UTC.
Position N 38°31' W 074°38'.

Length 250 m; draft 13.4 m.

Type: Tanker. MMSI: 240766000.

Date/timePositionNaut miles runAvg speedWind from/ knotsBaromVisibWave heightAir tempDewpointWater temp
2014-Aug-22 04:12N 38°31' W 074°38'0 0.1
2014-Aug-22 03:18N 38°31' W 074°38'0 0.0
2014-Aug-22 01:27N 38°31' W 074°38'0 0.0
2014-Aug-22 00:33N 38°31' W 074°38'0 0.1
2014-Aug-21 23:33N 38°31' W 074°38'8 7.9
2014-Aug-21 22:33N 38°24' W 074°34'1512.4
2014-Aug-21 21:21N 38°10' W 074°25'1012.1
2014-Aug-21 20:33N 38°01' W 074°24'1312.5
2014-Aug-21 19:33N 37°48' W 074°24'1312.6
2014-Aug-21 18:31N 37°35' W 074°23'3612.3
2014-Aug-21 15:33N 36°59' W 074°23'1212.1
2014-Aug-21 14:33N 36°47' W 074°23'1212.0
2014-Aug-21 13:32N 36°35' W 074°23'1212.0
2014-Aug-21 12:33N 36°23' W 074°23'1212.2
2014-Aug-21 11:33N 36°10' W 074°23'1312.7
2014-Aug-21 10:33N 35°58' W 074°23'1414.0
2014-Aug-21 09:34N 35°44' W 074°22'1514.7
2014-Aug-21 08:33N 35°29' W 074°22'1414.3
2014-Aug-21 07:33N 35°15' W 074°23'1414.1
2014-Aug-21 06:33N 35°03' W 074°33'2713.5
2014-Aug-21 04:33N 34°41' W 074°52'  
Track history (hours):
 
Tides and Currents Weather Stations Pressure Air Temp Water Temp Dewpoint Dewpoint Depression Visibility Wind Speed Wind Dir Waves Ship Positions

Minerva Libra

Last reported at 2014-Aug-22 04:12 UTC. Time now 2014-Aug-22 17:43 UTC.
Position N 38°31' W 074°38'.

Length 250 m; draft 13.4 m.

Type: Tanker. MMSI: 240766000.

Date/timePositionNaut miles runAvg speedWind from/ knotsBaromVisibWave heightAir tempDewpointWater temp
2014-Aug-22 04:12N 38°31' W 074°38'0 0.1
2014-Aug-22 03:18N 38°31' W 074°38'0 0.0
2014-Aug-22 01:27N 38°31' W 074°38'0 0.0
2014-Aug-22 00:33N 38°31' W 074°38'0 0.1
2014-Aug-21 23:33N 38°31' W 074°38'8 7.9
2014-Aug-21 22:33N 38°24' W 074°34'1512.4
2014-Aug-21 21:21N 38°10' W 074°25'1012.1
2014-Aug-21 20:33N 38°01' W 074°24'1312.5
2014-Aug-21 19:33N 37°48' W 074°24'1312.6
2014-Aug-21 18:31N 37°35' W 074°23'3612.3
2014-Aug-21 15:33N 36°59' W 074°23'1212.1
2014-Aug-21 14:33N 36°47' W 074°23'1212.0
2014-Aug-21 13:32N 36°35' W 074°23'1212.0
2014-Aug-21 12:33N 36°23' W 074°23'1212.2
2014-Aug-21 11:33N 36°10' W 074°23'1312.7
2014-Aug-21 10:33N 35°58' W 074°23'1414.0
2014-Aug-21 09:34N 35°44' W 074°22'1514.7
2014-Aug-21 08:33N 35°29' W 074°22'1414.3
2014-Aug-21 07:33N 35°15' W 074°23'1414.1
2014-Aug-21 06:33N 35°03' W 074°33'2713.5
2014-Aug-21 04:33N 34°41' W 074°52'  

Dump ship's entire track history